Hourly Weather Córdoba

Today, 29 September, Tuesday

Time Temperature Precipitation Wind Pressure Humidity
00:00 +15°C° 0 mm 4 mps 720 mmHg 40%
01:00 +15°C° 0 mm 4 mps 720 mmHg 42%
02:00 +14°C° 0 mm 4 mps 719 mmHg 45%
03:00 +14°C° 0 mm 4 mps 719 mmHg 46%
04:00 +14°C° 0 mm 5 mps 719 mmHg 47%
05:00 +14°C° 0 mm 5 mps 718 mmHg 48%
06:00 +16°C° 0 mm 6 mps 719 mmHg 45%
07:00 +17°C° 0 mm 6 mps 719 mmHg 42%
08:00 +20°C° 0 mm 7 mps 720 mmHg 39%
09:00 +23°C° 0 mm 7 mps 719 mmHg 34%
10:00 +26°C° 0 mm 7 mps 719 mmHg 29%
11:00 +29°C° 0 mm 7 mps 719 mmHg 24%
12:00 +30°C° 0 mm 7 mps 719 mmHg 22%
13:00 +32°C° 0 mm 7 mps 718 mmHg 20%
14:00 +34°C° 0 mm 6 mps 718 mmHg 18%
15:00 +33°C° 0 mm 6 mps 717 mmHg 20%
16:00 +32°C° 0 mm 6 mps 717 mmHg 21%
17:00 +32°C° 0 mm 6 mps 716 mmHg 23%
18:00 +28°C° 0 mm 5 mps 717 mmHg 27%
19:00 +26°C° 0 mm 5 mps 718 mmHg 31%
20:00 +23°C° 0 mm 4 mps 719 mmHg 36%
21:00 +23°C° 0 mm 4 mps 718 mmHg 39%
22:00 +22°C° 0 mm 4 mps 718 mmHg 41%
23:00 +21°C° 0 mm 4 mps 718 mmHg 44%

Tomorrow, 30 September, Wednesday

Time Temperature Precipitation Wind Pressure Humidity
00:00 +21°C° 0 mm 3 mps 718 mmHg 46%
01:00 +20°C° 0 mm 2 mps 718 mmHg 48%
02:00 +20°C° 0 mm 1 mps 717 mmHg 51%
03:00 +20°C° 0 mm 1 mps 717 mmHg 53%
04:00 +19°C° 0 mm 1 mps 717 mmHg 55%
05:00 +19°C° 0 mm 1 mps 717 mmHg 58%
06:00 +20°C° 0 mm 2 mps 718 mmHg 53%
07:00 +22°C° 0 mm 3 mps 718 mmHg 49%
08:00 +25°C° 0 mm 4 mps 719 mmHg 45%
09:00 +28°C° 0 mm 4 mps 718 mmHg 39%
10:00 +30°C° 0 mm 4 mps 718 mmHg 34%
11:00 +34°C° 0 mm 5 mps 718 mmHg 29%
12:00 +35°C° 0 mm 5 mps 717 mmHg 27%
13:00 +36°C° 0 mm 5 mps 717 mmHg 25%
14:00 +37°C° 0 mm 4 mps 716 mmHg 24%
15:00 +36°C° 0 mm 4 mps 715 mmHg 26%
16:00 +36°C° 0 mm 4 mps 715 mmHg 28%
17:00 +35°C° 0 mm 4 mps 714 mmHg 30%
18:00 +32°C° 0.1 mm 4 mps 715 mmHg 38%
19:00 +29°C° 0.1 mm 4 mps 716 mmHg 47%
20:00 +26°C° 0.1 mm 3 mps 716 mmHg 55%
21:00 +23°C° 0.2 mm 4 mps 716 mmHg 59%
22:00 +21°C° 0.2 mm 5 mps 717 mmHg 63%
23:00 +19°C° 0.2 mm 6 mps 717 mmHg 66%

Day after tomorrow, 1 October, Thursday

Time Temperature Precipitation Wind Pressure Humidity
00:00 +17°C° 0 mm 6 mps 717 mmHg 68%
01:00 +16°C° 0 mm 6 mps 717 mmHg 69%
02:00 +16°C° 0 mm 6 mps 717 mmHg 70%
03:00 +15°C° 0.1 mm 6 mps 717 mmHg 69%
04:00 +15°C° 0.1 mm 5 mps 718 mmHg 69%
05:00 +14°C° 0.1 mm 5 mps 718 mmHg 69%
06:00 +15°C° 0 mm 6 mps 719 mmHg 63%
07:00 +15°C° 0 mm 6 mps 719 mmHg 57%
08:00 +15°C° 0 mm 7 mps 720 mmHg 51%
09:00 +16°C° 0 mm 7 mps 720 mmHg 46%
10:00 +17°C° 0 mm 7 mps 721 mmHg 41%
11:00 +19°C° 0 mm 6 mps 721 mmHg 35%
12:00 +20°C° 0 mm 6 mps 721 mmHg 31%
13:00 +20°C° 0 mm 6 mps 720 mmHg 27%
14:00 +21°C° 0 mm 6 mps 720 mmHg 23%
15:00 +21°C° 0 mm 6 mps 720 mmHg 23%
16:00 +20°C° 0 mm 6 mps 720 mmHg 23%
17:00 +19°C° 0 mm 5 mps 719 mmHg 23%
18:00 +17°C° 0 mm 5 mps 720 mmHg 25%
19:00 +15°C° 0 mm 4 mps 721 mmHg 28%
20:00 +14°C° 0 mm 3 mps 722 mmHg 30%
21:00 +13°C° 0 mm 3 mps 722 mmHg 32%
22:00 +13°C° 0 mm 3 mps 723 mmHg 33%
23:00 +12°C° 0 mm 3 mps 723 mmHg 35%

2 October, Friday

Time Temperature Precipitation Wind Pressure Humidity
00:00 +13°C° 0 mm 2 mps 723 mmHg 34%
01:00 +13°C° 0 mm 2 mps 723 mmHg 34%
02:00 +12°C° 0 mm 2 mps 723 mmHg 34%
03:00 +12°C° 0 mm 2 mps 724 mmHg 36%
04:00 +12°C° 0 mm 2 mps 724 mmHg 38%
05:00 +12°C° 0 mm 2 mps 725 mmHg 40%
06:00 +11°C° 0 mm 3 mps 726 mmHg 41%
07:00 +12°C° 0 mm 3 mps 726 mmHg 43%
08:00 +13°C° 0 mm 4 mps 727 mmHg 44%
09:00 +14°C° 0 mm 4 mps 727 mmHg 43%
10:00 +17°C° 0 mm 4 mps 727 mmHg 42%
11:00 +17°C° 0 mm 5 mps 727 mmHg 41%
12:00 +19°C° 0 mm 5 mps 727 mmHg 38%
13:00 +19°C° 0 mm 5 mps 727 mmHg 35%
14:00 +20°C° 0 mm 6 mps 727 mmHg 31%
15:00 +19°C° 0 mm 6 mps 727 mmHg 31%
16:00 +17°C° 0 mm 6 mps 727 mmHg 31%
17:00 +17°C° 0 mm 6 mps 727 mmHg 30%
18:00 +16°C° 0 mm 6 mps 728 mmHg 32%
19:00 +14°C° 0 mm 5 mps 729 mmHg 34%
20:00 +13°C° 0 mm 5 mps 730 mmHg 36%
21:00 +13°C° 0 mm 4 mps 730 mmHg 39%
22:00 +12°C° 0 mm 4 mps 731 mmHg 41%
23:00 +12°C° 0 mm 4 mps 731 mmHg 44%

3 October, Saturday

Time Temperature Precipitation Wind Pressure Humidity
00:00 +11°C° 0 mm 4 mps 731 mmHg 47%
01:00 +11°C° 0 mm 3 mps 731 mmHg 50%
02:00 +10°C° 0 mm 2 mps 731 mmHg 53%
03:00 +10°C° 0 mm 2 mps 731 mmHg 54%
04:00 +10°C° 0 mm 2 mps 731 mmHg 56%
05:00 +9°C° 0 mm 3 mps 731 mmHg 58%
06:00 +9°C° 0 mm 3 mps 732 mmHg 58%
07:00 +9°C° 0 mm 3 mps 732 mmHg 58%
08:00 +9°C° 0 mm 3 mps 732 mmHg 58%
09:00 +9°C° 0 mm 3 mps 732 mmHg 56%
10:00 +9°C° 0 mm 3 mps 732 mmHg 54%
11:00 +9°C° 0 mm 3 mps 732 mmHg 52%
12:00 +10°C° 0 mm 3 mps 732 mmHg 48%
13:00 +10°C° 0 mm 3 mps 731 mmHg 44%
14:00 +11°C° 0 mm 3 mps 731 mmHg 39%
15:00 +10°C° 0 mm 3 mps 730 mmHg 39%
16:00 +10°C° 0 mm 2 mps 730 mmHg 39%
17:00 +10°C° 0 mm 2 mps 730 mmHg 39%
18:00 +10°C° 0 mm 2 mps 730 mmHg 41%
19:00 +11°C° 0 mm 1 mps 731 mmHg 43%
20:00 +10°C° 0 mm 1 mps 731 mmHg 45%
21:00 +11°C° 0 mm 1 mps 731 mmHg 44%
22:00 +11°C° 0 mm 1 mps 732 mmHg 43%
23:00 +11°C° 0 mm 1 mps 732 mmHg 43%

4 October, Sunday

Time Temperature Precipitation Wind Pressure Humidity
00:00 +11°C° 0 mm 1 mps 732 mmHg 43%
01:00 +10°C° 0 mm 1 mps 731 mmHg 43%
02:00 +9°C° 0 mm 0 mps 731 mmHg 44%
03:00 +10°C° 0 mm 1 mps 731 mmHg 46%
04:00 +10°C° 0 mm 1 mps 731 mmHg 48%
05:00 +10°C° 0 mm 1 mps 730 mmHg 50%
06:00 +10°C° 0 mm 1 mps 731 mmHg 55%
07:00 +10°C° 0 mm 1 mps 731 mmHg 59%
08:00 +10°C° 0 mm 1 mps 731 mmHg 64%
09:00 +10°C° 0 mm 2 mps 731 mmHg 64%
10:00 +10°C° 0 mm 2 mps 730 mmHg 64%
11:00 +12°C° 0 mm 2 mps 730 mmHg 64%
12:00 +13°C° 0 mm 2 mps 729 mmHg 64%
13:00 +12°C° 0 mm 3 mps 728 mmHg 63%
14:00 +13°C° 0 mm 3 mps 728 mmHg 62%
15:00 +12°C° 0 mm 3 mps 727 mmHg 63%
16:00 +13°C° 0 mm 2 mps 727 mmHg 64%
17:00 +13°C° 0 mm 2 mps 726 mmHg 66%
18:00 +13°C° 0 mm 2 mps 726 mmHg 68%
19:00 +12°C° 0 mm 1 mps 727 mmHg 70%
20:00 +12°C° 0 mm 1 mps 727 mmHg 72%
21:00 +12°C° 0 mm 1 mps 727 mmHg 72%
22:00 +12°C° 0 mm 1 mps 727 mmHg 71%
23:00 +12°C° 0 mm 1 mps 727 mmHg 71%
Show more

We Need Your Consent

Meteoprog and our Service Providers may store and access personal data such as cookies, device identifiers or other similar technologies on your device and process such data to personalise content and ads, as well as provide social media features and to analyse the traffic.

  • Store and/or access information on your device

    Cookies, device identifiers or other information can be stored or accessed on your device for the purposes indicated above.

  • Personalised ads and content, ad and content measurement, audience insights, and products development

    Ads and content can be personalised based on a profile. More data can be added to better personalise ads and content. Ad and content performance can be measured. Insights about the audience who saw the ads and content can be derived. Such data can be used to develop or improve user’s experience, systems and software.

By clicking ‘I Agree’ you will allow the use of indicated cookies, device identifiers, web beacons or other similar technologies. Your settings can be changed in the browser on your device.

For certain purposes, legitimate interests may be relied on, rather than consent. You can read more about this in our Privacy and Cookie Policy.